contact:dominique.lefevre@mio.osupytheas.fr, maurice.libes@osupytheas.fr, didier.mallarino@osupytheas.fr
Project:EMSO http://www.emso-fr.org/EMSO-France
Depth: 2436.0 m
Title:EMSO Ligure Ouest : Data MII capteur OXYGEN
DateTime,Latitude,Longitude,Optode-Type,Optode_Serial,Oxygen,Saturation_Oxygen,Temperature
DateTime,Latitude,Longitude,Optode-Type,Optode_Serial,µmol.l-1,%,degC
2019-05-31T00:01:25,42.805,6.029,4330,1995,195.763,59.866,13.287
2019-05-31T00:04:25,42.805,6.029,4330,1995,195.817,59.883,13.287
2019-05-31T00:07:25,42.805,6.029,4330,1995,195.824,59.885,13.287
2019-05-31T00:10:25,42.805,6.029,4330,1995,195.805,59.879,13.287
2019-05-31T00:13:25,42.805,6.029,4330,1995,195.815,59.882,13.288
2019-05-31T00:16:25,42.805,6.029,4330,1995,195.809,59.881,13.288
2019-05-31T00:19:25,42.805,6.029,4330,1995,195.833,59.888,13.287
2019-05-31T00:22:25,42.805,6.029,4330,1995,195.809,59.881,13.288
2019-05-31T00:25:25,42.805,6.029,4330,1995,195.823,59.885,13.288
2019-05-31T00:28:25,42.805,6.029,4330,1995,195.785,59.873,13.288
2019-05-31T00:31:25,42.805,6.029,4330,1995,195.806,59.880,13.288
2019-05-31T00:34:25,42.805,6.029,4330,1995,195.816,59.883,13.288
2019-05-31T00:37:25,42.805,6.029,4330,1995,195.796,59.877,13.288
2019-05-31T00:40:25,42.805,6.029,4330,1995,195.813,59.882,13.288
2019-05-31T00:43:25,42.805,6.029,4330,1995,195.835,59.889,13.288
2019-05-31T00:46:25,42.805,6.029,4330,1995,195.779,59.872,13.288
2019-05-31T00:49:25,42.805,6.029,4330,1995,195.834,59.888,13.288
2019-05-31T00:52:25,42.805,6.029,4330,1995,195.840,59.891,13.288
2019-05-31T00:55:25,42.805,6.029,4330,1995,195.859,59.897,13.288
2019-05-31T00:58:25,42.805,6.029,4330,1995,195.798,59.878,13.288
2019-05-31T01:01:25,42.805,6.029,4330,1995,195.794,59.876,13.288
2019-05-31T01:04:25,42.805,6.029,4330,1995,195.785,59.874,13.288
2019-05-31T01:07:25,42.805,6.029,4330,1995,195.816,59.884,13.289
2019-05-31T01:10:25,42.805,6.029,4330,1995,195.736,59.859,13.288
2019-05-31T01:13:25,42.805,6.029,4330,1995,195.791,59.876,13.288
2019-05-31T01:16:25,42.805,6.029,4330,1995,195.837,59.890,13.288
2019-05-31T01:19:25,42.805,6.029,4330,1995,195.808,59.881,13.288
2019-05-31T01:22:25,42.805,6.029,4330,1995,195.742,59.860,13.288
2019-05-31T01:25:25,42.805,6.029,4330,1995,195.777,59.871,13.288
2019-05-31T01:28:25,42.805,6.029,4330,1995,195.747,59.861,13.287
2019-05-31T01:31:25,42.805,6.029,4330,1995,195.724,59.854,13.287
2019-05-31T01:34:25,42.805,6.029,4330,1995,195.806,59.879,13.287
2019-05-31T01:37:25,42.805,6.029,4330,1995,195.795,59.876,13.287
2019-05-31T01:40:25,42.805,6.029,4330,1995,195.787,59.873,13.287
2019-05-31T01:43:25,42.805,6.029,4330,1995,195.824,59.884,13.287
2019-05-31T01:46:25,42.805,6.029,4330,1995,195.822,59.884,13.287
2019-05-31T01:49:25,42.805,6.029,4330,1995,195.819,59.883,13.287
2019-05-31T01:52:25,42.805,6.029,4330,1995,195.823,59.884,13.287
2019-05-31T01:55:25,42.805,6.029,4330,1995,195.781,59.871,13.287
2019-05-31T01:58:25,42.805,6.029,4330,1995,195.841,59.890,13.287
2019-05-31T02:01:25,42.805,6.029,4330,1995,195.773,59.869,13.287
2019-05-31T02:04:25,42.805,6.029,4330,1995,195.838,59.889,13.287
2019-05-31T02:07:25,42.805,6.029,4330,1995,195.816,59.882,13.287
2019-05-31T02:10:25,42.805,6.029,4330,1995,195.780,59.871,13.287
2019-05-31T02:13:25,42.805,6.029,4330,1995,195.791,59.875,13.288
2019-05-31T02:16:25,42.805,6.029,4330,1995,195.777,59.870,13.287
2019-05-31T02:19:25,42.805,6.029,4330,1995,195.737,59.858,13.287
2019-05-31T02:22:25,42.805,6.029,4330,1995,195.804,59.879,13.288
2019-05-31T02:25:25,42.805,6.029,4330,1995,195.767,59.868,13.288
2019-05-31T02:28:25,42.805,6.029,4330,1995,195.781,59.872,13.287
2019-05-31T02:31:25,42.805,6.029,4330,1995,195.738,59.859,13.288
2019-05-31T02:34:25,42.805,6.029,4330,1995,195.741,59.860,13.288
2019-05-31T02:37:25,42.805,6.029,4330,1995,195.813,59.882,13.288
2019-05-31T02:40:25,42.805,6.029,4330,1995,195.737,59.858,13.288
2019-05-31T02:43:25,42.805,6.029,4330,1995,195.781,59.872,13.288
2019-05-31T02:46:25,42.805,6.029,4330,1995,195.770,59.869,13.288
2019-05-31T02:49:25,42.805,6.029,4330,1995,195.775,59.871,13.288
2019-05-31T02:52:25,42.805,6.029,4330,1995,195.795,59.877,13.288
2019-05-31T02:55:25,42.805,6.029,4330,1995,195.796,59.877,13.288
2019-05-31T02:58:25,42.805,6.029,4330,1995,195.799,59.878,13.288
2019-05-31T03:01:25,42.805,6.029,4330,1995,195.838,59.889,13.288
2019-05-31T03:04:25,42.805,6.029,4330,1995,195.860,59.896,13.288
2019-05-31T03:07:25,42.805,6.029,4330,1995,195.785,59.873,13.288
2019-05-31T03:10:25,42.805,6.029,4330,1995,195.824,59.886,13.288
2019-05-31T03:13:25,42.805,6.029,4330,1995,195.859,59.896,13.288
2019-05-31T03:16:25,42.805,6.029,4330,1995,195.864,59.898,13.288
2019-05-31T03:19:25,42.805,6.029,4330,1995,195.883,59.903,13.288
2019-05-31T03:22:25,42.805,6.029,4330,1995,195.864,59.898,13.288
2019-05-31T03:25:25,42.805,6.029,4330,1995,195.824,59.886,13.288
2019-05-31T03:28:25,42.805,6.029,4330,1995,195.850,59.893,13.288
2019-05-31T03:31:25,42.805,6.029,4330,1995,195.828,59.887,13.288
2019-05-31T03:34:25,42.805,6.029,4330,1995,195.842,59.891,13.287
2019-05-31T03:37:25,42.805,6.029,4330,1995,195.859,59.895,13.287
2019-05-31T03:40:25,42.805,6.029,4330,1995,195.855,59.894,13.287
2019-05-31T03:43:25,42.805,6.029,4330,1995,195.877,59.901,13.287
2019-05-31T03:46:25,42.805,6.029,4330,1995,195.883,59.902,13.287
2019-05-31T03:49:25,42.805,6.029,4330,1995,195.861,59.896,13.287
2019-05-31T03:52:25,42.805,6.029,4330,1995,195.874,59.900,13.287
2019-05-31T03:55:25,42.805,6.029,4330,1995,195.812,59.881,13.287
2019-05-31T03:58:25,42.805,6.029,4330,1995,195.853,59.893,13.287
2019-05-31T04:01:25,42.805,6.029,4330,1995,195.838,59.889,13.287
2019-05-31T04:04:25,42.805,6.029,4330,1995,195.813,59.881,13.287
2019-05-31T04:07:25,42.805,6.029,4330,1995,195.824,59.884,13.287
2019-05-31T04:10:25,42.805,6.029,4330,1995,195.805,59.879,13.287
2019-05-31T04:13:25,42.805,6.029,4330,1995,195.849,59.892,13.287
2019-05-31T04:16:25,42.805,6.029,4330,1995,195.854,59.893,13.287
2019-05-31T04:19:25,42.805,6.029,4330,1995,195.838,59.889,13.287
2019-05-31T04:22:25,42.805,6.029,4330,1995,195.897,59.907,13.287
2019-05-31T04:25:25,42.805,6.029,4330,1995,195.889,59.904,13.287
2019-05-31T04:28:25,42.805,6.029,4330,1995,195.908,59.910,13.287
2019-05-31T04:31:25,42.805,6.029,4330,1995,195.867,59.898,13.287
2019-05-31T04:34:25,42.805,6.029,4330,1995,195.884,59.903,13.287
2019-05-31T04:37:25,42.805,6.029,4330,1995,195.817,59.883,13.287
2019-05-31T04:40:25,42.805,6.029,4330,1995,195.889,59.904,13.287
2019-05-31T04:43:25,42.805,6.029,4330,1995,195.902,59.908,13.287
2019-05-31T04:46:25,42.805,6.029,4330,1995,195.851,59.893,13.287
2019-05-31T04:49:25,42.805,6.029,4330,1995,195.874,59.900,13.287
2019-05-31T04:52:25,42.805,6.029,4330,1995,195.873,59.900,13.287
2019-05-31T04:55:25,42.805,6.029,4330,1995,195.802,59.878,13.287
2019-05-31T04:58:25,42.805,6.029,4330,1995,195.874,59.900,13.288
2019-05-31T05:01:25,42.805,6.029,4330,1995,195.869,59.899,13.288
2019-05-31T05:04:25,42.805,6.029,4330,1995,195.842,59.890,13.288
2019-05-31T05:07:25,42.805,6.029,4330,1995,195.874,59.900,13.288
2019-05-31T05:10:25,42.805,6.029,4330,1995,195.871,59.900,13.288
2019-05-31T05:13:25,42.805,6.029,4330,1995,195.833,59.888,13.288
2019-05-31T05:16:25,42.805,6.029,4330,1995,195.788,59.874,13.288
2019-05-31T05:19:25,42.805,6.029,4330,1995,195.891,59.906,13.288
2019-05-31T05:22:25,42.805,6.029,4330,1995,195.851,59.894,13.288
2019-05-31T05:25:25,42.805,6.029,4330,1995,195.832,59.888,13.288
2019-05-31T05:28:25,42.805,6.029,4330,1995,195.875,59.901,13.288
2019-05-31T05:31:25,42.805,6.029,4330,1995,195.831,59.887,13.288
2019-05-31T05:34:25,42.805,6.029,4330,1995,195.833,59.888,13.288
2019-05-31T05:37:25,42.805,6.029,4330,1995,195.863,59.897,13.288
2019-05-31T05:40:25,42.805,6.029,4330,1995,195.770,59.869,13.288
2019-05-31T05:43:25,42.805,6.029,4330,1995,195.828,59.886,13.287
2019-05-31T05:46:25,42.805,6.029,4330,1995,195.861,59.896,13.287
2019-05-31T05:49:25,42.805,6.029,4330,1995,195.849,59.892,13.287
2019-05-31T05:52:25,42.805,6.029,4330,1995,195.855,59.894,13.287
2019-05-31T05:55:25,42.805,6.029,4330,1995,195.814,59.882,13.287
2019-05-31T05:58:25,42.805,6.029,4330,1995,195.824,59.885,13.287
2019-05-31T06:01:25,42.805,6.029,4330,1995,195.833,59.887,13.287
2019-05-31T06:04:25,42.805,6.029,4330,1995,195.817,59.882,13.287
2019-05-31T06:07:25,42.805,6.029,4330,1995,195.831,59.886,13.287
2019-05-31T06:10:25,42.805,6.029,4330,1995,195.844,59.891,13.287
2019-05-31T06:13:25,42.805,6.029,4330,1995,195.865,59.897,13.287
2019-05-31T06:16:25,42.805,6.029,4330,1995,195.804,59.878,13.287
2019-05-31T06:19:25,42.805,6.029,4330,1995,195.890,59.905,13.287
2019-05-31T06:22:25,42.805,6.029,4330,1995,195.797,59.876,13.287
2019-05-31T06:25:25,42.805,6.029,4330,1995,195.825,59.885,13.287
2019-05-31T06:28:25,42.805,6.029,4330,1995,195.838,59.889,13.287
2019-05-31T06:31:25,42.805,6.029,4330,1995,195.786,59.873,13.287
2019-05-31T06:34:25,42.805,6.029,4330,1995,195.816,59.882,13.287
2019-05-31T06:37:25,42.805,6.029,4330,1995,195.788,59.874,13.287
2019-05-31T06:40:25,42.805,6.029,4330,1995,195.849,59.892,13.287
2019-05-31T06:43:25,42.805,6.029,4330,1995,195.810,59.880,13.287
2019-05-31T06:46:25,42.805,6.029,4330,1995,195.852,59.893,13.287
2019-05-31T06:49:25,42.805,6.029,4330,1995,195.872,59.900,13.288
2019-05-31T06:52:25,42.805,6.029,4330,1995,195.831,59.887,13.287
2019-05-31T06:55:25,42.805,6.029,4330,1995,195.834,59.888,13.288
2019-05-31T06:58:25,42.805,6.029,4330,1995,195.863,59.897,13.288
2019-05-31T07:01:25,42.805,6.029,4330,1995,195.777,59.872,13.288
2019-05-31T07:04:25,42.805,6.029,4330,1995,195.727,59.856,13.288
2019-05-31T07:07:25,42.805,6.029,4330,1995,195.762,59.867,13.288
2019-05-31T07:10:25,42.805,6.029,4330,1995,195.723,59.856,13.288
2019-05-31T07:13:25,42.805,6.029,4330,1995,195.726,59.856,13.288
2019-05-31T07:16:25,42.805,6.029,4330,1995,195.711,59.851,13.288
2019-05-31T07:19:25,42.805,6.029,4330,1995,195.759,59.866,13.288
2019-05-31T07:22:25,42.805,6.029,4330,1995,195.746,59.863,13.288
2019-05-31T07:25:25,42.805,6.029,4330,1995,195.760,59.867,13.288
2019-05-31T07:28:25,42.805,6.029,4330,1995,195.801,59.879,13.288
2019-05-31T07:31:25,42.805,6.029,4330,1995,195.754,59.864,13.288
2019-05-31T07:34:25,42.805,6.029,4330,1995,195.770,59.870,13.288
2019-05-31T07:37:25,42.805,6.029,4330,1995,195.759,59.866,13.288
2019-05-31T07:40:25,42.805,6.029,4330,1995,195.673,59.840,13.289
2019-05-31T07:43:25,42.805,6.029,4330,1995,195.710,59.851,13.288
2019-05-31T07:46:25,42.805,6.029,4330,1995,195.740,59.860,13.288
2019-05-31T07:49:25,42.805,6.029,4330,1995,195.702,59.849,13.288
2019-05-31T07:52:25,42.805,6.029,4330,1995,195.686,59.844,13.288
2019-05-31T07:55:25,42.805,6.029,4330,1995,195.714,59.851,13.288
2019-05-31T07:58:25,42.805,6.029,4330,1995,195.710,59.850,13.288
2019-05-31T08:01:25,42.805,6.029,4330,1995,195.709,59.850,13.288
2019-05-31T08:04:25,42.805,6.029,4330,1995,195.687,59.844,13.288
2019-05-31T08:07:25,42.805,6.029,4330,1995,195.699,59.847,13.288
2019-05-31T08:10:25,42.805,6.029,4330,1995,195.729,59.856,13.288
2019-05-31T08:13:25,42.805,6.029,4330,1995,195.676,59.840,13.288
2019-05-31T08:16:25,42.805,6.029,4330,1995,195.634,59.827,13.287
2019-05-31T08:19:25,42.805,6.029,4330,1995,195.659,59.835,13.287
2019-05-31T08:22:25,42.805,6.029,4330,1995,195.634,59.827,13.287
2019-05-31T08:25:25,42.805,6.029,4330,1995,195.617,59.822,13.287
2019-05-31T08:28:25,42.805,6.029,4330,1995,195.625,59.824,13.287
2019-05-31T08:31:25,42.805,6.029,4330,1995,195.665,59.836,13.287
2019-05-31T08:34:25,42.805,6.029,4330,1995,195.610,59.820,13.287
2019-05-31T08:37:25,42.805,6.029,4330,1995,195.631,59.826,13.287
2019-05-31T08:40:25,42.805,6.029,4330,1995,195.658,59.834,13.287
2019-05-31T08:43:25,42.805,6.029,4330,1995,195.714,59.851,13.287
2019-05-31T08:46:25,42.805,6.029,4330,1995,195.665,59.837,13.288
2019-05-31T08:49:25,42.805,6.029,4330,1995,195.759,59.865,13.288
2019-05-31T08:52:25,42.805,6.029,4330,1995,195.653,59.833,13.288
2019-05-31T08:55:25,42.805,6.029,4330,1995,195.672,59.839,13.288
2019-05-31T08:58:25,42.805,6.029,4330,1995,195.648,59.831,13.288
2019-05-31T09:01:25,42.805,6.029,4330,1995,195.617,59.822,13.288
2019-05-31T09:04:25,42.805,6.029,4330,1995,195.635,59.828,13.288
2019-05-31T09:07:25,42.805,6.029,4330,1995,195.634,59.828,13.288
2019-05-31T09:10:25,42.805,6.029,4330,1995,195.665,59.837,13.288
2019-05-31T09:13:25,42.805,6.029,4330,1995,195.644,59.831,13.288
2019-05-31T09:16:25,42.805,6.029,4330,1995,195.601,59.818,13.288
2019-05-31T09:19:25,42.805,6.029,4330,1995,195.659,59.835,13.288
2019-05-31T09:22:25,42.805,6.029,4330,1995,195.627,59.826,13.288
2019-05-31T09:25:25,42.805,6.029,4330,1995,195.638,59.829,13.288
2019-05-31T09:28:25,42.805,6.029,4330,1995,195.627,59.826,13.288
2019-05-31T09:31:25,42.805,6.029,4330,1995,195.635,59.828,13.288
2019-05-31T09:34:25,42.805,6.029,4330,1995,195.577,59.810,13.288
2019-05-31T09:37:25,42.805,6.029,4330,1995,195.630,59.827,13.288
2019-05-31T09:40:25,42.805,6.029,4330,1995,195.620,59.824,13.288
2019-05-31T09:43:25,42.805,6.029,4330,1995,195.647,59.832,13.288
2019-05-31T09:46:25,42.805,6.029,4330,1995,195.589,59.815,13.288
2019-05-31T09:49:25,42.805,6.029,4330,1995,195.595,59.816,13.289
2019-05-31T09:52:25,42.805,6.029,4330,1995,195.572,59.809,13.289
2019-05-31T09:55:24,42.805,6.029,4330,1995,195.612,59.821,13.288
2019-05-31T09:58:24,42.805,6.029,4330,1995,195.600,59.817,13.288
2019-05-31T10:01:24,42.805,6.029,4330,1995,195.659,59.835,13.288
2019-05-31T10:04:24,42.805,6.029,4330,1995,195.577,59.810,13.288
2019-05-31T10:07:24,42.805,6.029,4330,1995,195.585,59.812,13.288
2019-05-31T10:10:24,42.805,6.029,4330,1995,195.591,59.814,13.288
2019-05-31T10:13:24,42.805,6.029,4330,1995,195.602,59.817,13.288
2019-05-31T10:16:24,42.805,6.029,4330,1995,195.602,59.817,13.288
2019-05-31T10:19:24,42.805,6.029,4330,1995,195.616,59.822,13.288
2019-05-31T10:22:24,42.805,6.029,4330,1995,195.602,59.817,13.288
2019-05-31T10:25:24,42.805,6.029,4330,1995,195.608,59.819,13.287
2019-05-31T10:28:24,42.805,6.029,4330,1995,195.575,59.809,13.287
2019-05-31T10:31:24,42.805,6.029,4330,1995,195.648,59.831,13.287
2019-05-31T10:34:24,42.805,6.029,4330,1995,195.630,59.825,13.287
2019-05-31T10:37:24,42.805,6.029,4330,1995,195.659,59.834,13.287
2019-05-31T10:40:24,42.805,6.029,4330,1995,195.664,59.836,13.287
2019-05-31T10:43:24,42.805,6.029,4330,1995,195.663,59.835,13.287
2019-05-31T10:46:24,42.805,6.029,4330,1995,195.673,59.838,13.287
2019-05-31T10:49:24,42.805,6.029,4330,1995,195.663,59.836,13.287
2019-05-31T10:52:24,42.805,6.029,4330,1995,195.692,59.844,13.287
2019-05-31T10:55:24,42.805,6.029,4330,1995,195.676,59.839,13.287
2019-05-31T10:58:24,42.805,6.029,4330,1995,195.696,59.846,13.288
2019-05-31T11:01:24,42.805,6.029,4330,1995,195.740,59.859,13.288
2019-05-31T11:04:24,42.805,6.029,4330,1995,195.730,59.856,13.288
2019-05-31T11:07:24,42.805,6.029,4330,1995,195.669,59.838,13.288
2019-05-31T11:10:24,42.805,6.029,4330,1995,195.735,59.858,13.288
2019-05-31T11:13:24,42.805,6.029,4330,1995,195.654,59.833,13.288
2019-05-31T11:16:24,42.805,6.029,4330,1995,195.680,59.841,13.288
2019-05-31T11:19:24,42.805,6.029,4330,1995,195.674,59.839,13.288
2019-05-31T11:22:24,42.805,6.029,4330,1995,195.720,59.853,13.288
2019-05-31T11:25:24,42.805,6.029,4330,1995,195.726,59.855,13.288
2019-05-31T11:28:24,42.805,6.029,4330,1995,195.634,59.828,13.288
2019-05-31T11:31:24,42.805,6.029,4330,1995,195.635,59.828,13.288
2019-05-31T11:34:24,42.805,6.029,4330,1995,195.674,59.840,13.288
2019-05-31T11:37:24,42.805,6.029,4330,1995,195.638,59.829,13.288
2019-05-31T11:40:24,42.805,6.029,4330,1995,195.657,59.835,13.288
2019-05-31T11:43:24,42.805,6.029,4330,1995,195.550,59.802,13.288
2019-05-31T11:46:24,42.805,6.029,4330,1995,195.618,59.823,13.288
2019-05-31T11:49:24,42.805,6.029,4330,1995,195.679,59.842,13.288
2019-05-31T11:52:24,42.805,6.029,4330,1995,195.618,59.823,13.288
2019-05-31T11:55:24,42.805,6.029,4330,1995,195.637,59.829,13.288
2019-05-31T11:58:24,42.805,6.029,4330,1995,195.572,59.809,13.288
2019-05-31T12:01:24,42.805,6.029,4330,1995,195.620,59.824,13.288
2019-05-31T12:04:24,42.805,6.029,4330,1995,195.626,59.825,13.288
2019-05-31T12:07:24,42.805,6.029,4330,1995,195.568,59.808,13.288
2019-05-31T12:10:24,42.805,6.029,4330,1995,195.620,59.823,13.288
2019-05-31T12:13:24,42.805,6.029,4330,1995,195.545,59.800,13.288
2019-05-31T12:16:24,42.805,6.029,4330,1995,195.577,59.810,13.288
2019-05-31T12:19:24,42.805,6.029,4330,1995,195.613,59.821,13.288
2019-05-31T12:22:24,42.805,6.029,4330,1995,195.638,59.828,13.288
2019-05-31T12:25:24,42.805,6.029,4330,1995,195.683,59.842,13.287
2019-05-31T12:28:24,42.805,6.029,4330,1995,195.669,59.838,13.287
2019-05-31T12:31:24,42.805,6.029,4330,1995,195.714,59.851,13.287
2019-05-31T12:34:24,42.805,6.029,4330,1995,195.725,59.854,13.287
2019-05-31T12:37:24,42.805,6.029,4330,1995,195.689,59.843,13.287
2019-05-31T12:40:24,42.805,6.029,4330,1995,195.730,59.856,13.287
2019-05-31T12:43:24,42.805,6.029,4330,1995,195.745,59.860,13.287
2019-05-31T12:46:24,42.805,6.029,4330,1995,195.747,59.861,13.287
2019-05-31T12:49:24,42.805,6.029,4330,1995,195.768,59.867,13.287
2019-05-31T12:52:24,42.805,6.029,4330,1995,195.744,59.860,13.287
2019-05-31T12:55:24,42.805,6.029,4330,1995,195.775,59.869,13.287
2019-05-31T12:58:24,42.805,6.029,4330,1995,195.777,59.870,13.287
2019-05-31T13:01:24,42.805,6.029,4330,1995,195.782,59.872,13.287
2019-05-31T13:04:24,42.805,6.029,4330,1995,195.762,59.866,13.287
2019-05-31T13:07:24,42.805,6.029,4330,1995,195.806,59.879,13.287
2019-05-31T13:10:24,42.805,6.029,4330,1995,195.822,59.884,13.287
2019-05-31T13:13:24,42.805,6.029,4330,1995,195.847,59.892,13.287
2019-05-31T13:16:24,42.805,6.029,4330,1995,195.821,59.884,13.287
2019-05-31T13:19:24,42.805,6.029,4330,1995,195.733,59.857,13.287
2019-05-31T13:22:24,42.805,6.029,4330,1995,195.778,59.871,13.287
2019-05-31T13:25:24,42.805,6.029,4330,1995,195.782,59.872,13.287
2019-05-31T13:28:24,42.805,6.029,4330,1995,195.851,59.893,13.287
2019-05-31T13:31:24,42.805,6.029,4330,1995,195.817,59.883,13.287
2019-05-31T13:34:24,42.805,6.029,4330,1995,195.804,59.879,13.287
2019-05-31T13:37:24,42.805,6.029,4330,1995,195.778,59.871,13.288
2019-05-31T13:40:24,42.805,6.029,4330,1995,195.833,59.888,13.288
2019-05-31T13:43:24,42.805,6.029,4330,1995,195.751,59.863,13.288
2019-05-31T13:46:24,42.805,6.029,4330,1995,195.804,59.879,13.288
2019-05-31T13:49:24,42.805,6.029,4330,1995,195.803,59.879,13.288
2019-05-31T13:52:24,42.805,6.029,4330,1995,195.767,59.868,13.288
2019-05-31T13:55:24,42.805,6.029,4330,1995,195.808,59.880,13.288
2019-05-31T13:58:24,42.805,6.029,4330,1995,195.828,59.887,13.288
2019-05-31T14:01:24,42.805,6.029,4330,1995,195.800,59.878,13.288
2019-05-31T14:04:24,42.805,6.029,4330,1995,195.758,59.865,13.288
2019-05-31T14:07:24,42.805,6.029,4330,1995,195.735,59.858,13.288
2019-05-31T14:10:24,42.805,6.029,4330,1995,195.770,59.869,13.288
2019-05-31T14:13:24,42.805,6.029,4330,1995,195.765,59.867,13.288
2019-05-31T14:16:24,42.805,6.029,4330,1995,195.777,59.871,13.288
2019-05-31T14:19:24,42.805,6.029,4330,1995,195.749,59.863,13.288
2019-05-31T14:22:24,42.805,6.029,4330,1995,195.759,59.866,13.288
2019-05-31T14:25:24,42.805,6.029,4330,1995,195.780,59.872,13.288
2019-05-31T14:28:24,42.805,6.029,4330,1995,195.725,59.855,13.288
2019-05-31T14:31:24,42.805,6.029,4330,1995,195.788,59.874,13.288
2019-05-31T14:34:24,42.805,6.029,4330,1995,195.789,59.874,13.288
2019-05-31T14:37:24,42.805,6.029,4330,1995,195.786,59.874,13.288
2019-05-31T14:40:24,42.805,6.029,4330,1995,195.740,59.859,13.287
2019-05-31T14:43:24,42.805,6.029,4330,1995,195.787,59.873,13.287
2019-05-31T14:46:24,42.805,6.029,4330,1995,195.839,59.889,13.287
2019-05-31T14:49:24,42.805,6.029,4330,1995,195.746,59.861,13.287
2019-05-31T14:52:24,42.805,6.029,4330,1995,195.827,59.885,13.287
2019-05-31T14:55:24,42.805,6.029,4330,1995,195.792,59.874,13.287
2019-05-31T14:58:24,42.805,6.029,4330,1995,195.806,59.879,13.287
2019-05-31T15:01:24,42.805,6.029,4330,1995,195.816,59.882,13.287
2019-05-31T15:04:24,42.805,6.029,4330,1995,195.831,59.886,13.287
2019-05-31T15:07:24,42.805,6.029,4330,1995,195.796,59.876,13.287
2019-05-31T15:10:24,42.805,6.029,4330,1995,195.845,59.891,13.287
2019-05-31T15:13:24,42.805,6.029,4330,1995,195.783,59.872,13.287
2019-05-31T15:16:24,42.805,6.029,4330,1995,195.766,59.867,13.287
2019-05-31T15:19:24,42.805,6.029,4330,1995,195.771,59.868,13.287
2019-05-31T15:22:24,42.805,6.029,4330,1995,195.796,59.876,13.287
2019-05-31T15:25:24,42.805,6.029,4330,1995,195.726,59.855,13.287
2019-05-31T15:28:24,42.805,6.029,4330,1995,195.812,59.881,13.287
2019-05-31T15:31:24,42.805,6.029,4330,1995,195.757,59.864,13.287
2019-05-31T15:34:24,42.805,6.029,4330,1995,195.772,59.869,13.287
2019-05-31T15:37:24,42.805,6.029,4330,1995,195.772,59.869,13.287
2019-05-31T15:40:24,42.805,6.029,4330,1995,195.811,59.881,13.287
2019-05-31T15:43:24,42.805,6.029,4330,1995,195.849,59.892,13.287
2019-05-31T15:46:24,42.805,6.029,4330,1995,195.800,59.878,13.287
2019-05-31T15:49:24,42.805,6.029,4330,1995,195.832,59.888,13.288
2019-05-31T15:52:24,42.805,6.029,4330,1995,195.888,59.905,13.288
2019-05-31T15:55:24,42.805,6.029,4330,1995,195.816,59.883,13.288
2019-05-31T15:58:24,42.805,6.029,4330,1995,195.821,59.884,13.288
2019-05-31T16:01:24,42.805,6.029,4330,1995,195.808,59.880,13.288
2019-05-31T16:04:24,42.805,6.029,4330,1995,195.751,59.863,13.288
2019-05-31T16:07:24,42.805,6.029,4330,1995,195.833,59.888,13.288
2019-05-31T16:10:24,42.805,6.029,4330,1995,195.814,59.882,13.288
2019-05-31T16:13:24,42.805,6.029,4330,1995,195.816,59.883,13.288
2019-05-31T16:16:24,42.805,6.029,4330,1995,195.785,59.873,13.288
2019-05-31T16:19:24,42.805,6.029,4330,1995,195.810,59.881,13.288
2019-05-31T16:22:24,42.805,6.029,4330,1995,195.822,59.885,13.288
2019-05-31T16:25:24,42.805,6.029,4330,1995,195.792,59.876,13.288
2019-05-31T16:28:24,42.805,6.029,4330,1995,195.817,59.883,13.288
2019-05-31T16:31:24,42.805,6.029,4330,1995,195.787,59.874,13.288
2019-05-31T16:34:24,42.805,6.029,4330,1995,195.756,59.865,13.288
2019-05-31T16:37:24,42.805,6.029,4330,1995,195.752,59.864,13.288
2019-05-31T16:40:24,42.805,6.029,4330,1995,195.669,59.838,13.288
2019-05-31T16:43:24,42.805,6.029,4330,1995,195.680,59.841,13.288
2019-05-31T16:46:24,42.805,6.029,4330,1995,195.719,59.853,13.288
2019-05-31T16:49:24,42.805,6.029,4330,1995,195.707,59.849,13.288
2019-05-31T16:52:24,42.805,6.029,4330,1995,195.741,59.860,13.288
2019-05-31T16:55:24,42.805,6.029,4330,1995,195.654,59.833,13.287
2019-05-31T16:58:24,42.805,6.029,4330,1995,195.717,59.852,13.287
2019-05-31T17:01:24,42.805,6.029,4330,1995,195.671,59.838,13.287
2019-05-31T17:04:24,42.805,6.029,4330,1995,195.690,59.843,13.287
2019-05-31T17:07:24,42.805,6.029,4330,1995,195.672,59.838,13.287
2019-05-31T17:10:24,42.805,6.029,4330,1995,195.673,59.838,13.287
2019-05-31T17:13:24,42.805,6.029,4330,1995,195.688,59.843,13.287
2019-05-31T17:16:24,42.805,6.029,4330,1995,195.630,59.825,13.287
2019-05-31T17:19:24,42.805,6.029,4330,1995,195.676,59.839,13.287
2019-05-31T17:22:24,42.805,6.029,4330,1995,195.607,59.818,13.287
2019-05-31T17:25:24,42.805,6.029,4330,1995,195.660,59.834,13.287
2019-05-31T17:28:24,42.805,6.029,4330,1995,195.663,59.835,13.287
2019-05-31T17:31:24,42.805,6.029,4330,1995,195.657,59.834,13.287
2019-05-31T17:34:24,42.805,6.029,4330,1995,195.662,59.835,13.287
2019-05-31T17:37:24,42.805,6.029,4330,1995,195.712,59.851,13.287
2019-05-31T17:40:24,42.805,6.029,4330,1995,195.726,59.855,13.287
2019-05-31T17:43:24,42.805,6.029,4330,1995,195.725,59.854,13.287
2019-05-31T17:46:24,42.805,6.029,4330,1995,195.715,59.852,13.287
2019-05-31T17:49:24,42.805,6.029,4330,1995,195.683,59.842,13.288
2019-05-31T17:52:24,42.805,6.029,4330,1995,195.711,59.851,13.288
2019-05-31T17:55:24,42.805,6.029,4330,1995,195.700,59.847,13.288
2019-05-31T17:58:24,42.805,6.029,4330,1995,195.672,59.839,13.288
2019-05-31T18:01:24,42.805,6.029,4330,1995,195.683,59.842,13.287
2019-05-31T18:04:24,42.805,6.029,4330,1995,195.734,59.858,13.288
2019-05-31T18:07:24,42.805,6.029,4330,1995,195.725,59.855,13.288